Tracking 19246 objects as of 20-Aug-2018
HD Live streaming from Space Station
objects crossing your sky now

PALAPA 2

Track PALAPA 2 now!
PALAPA 2 is classified as:


NORAD ID: 9862
Int'l Code: 1977-018A
Perigee: 35,843.6 km
Apogee: 35,872.7 km
Inclination: 13.7 °
Period: 1,439.4 minutes
Semi major axis: 42229 km
RCS: 5.6864 m2 (large)
Launch date: March 10, 1977
Source: Indonesia (INDO)
Launch site: AIR FORCE EASTERN TEST RANGE (AFETR)
aabbcc
Your satellite tracking list
Your tracking list is empty




NASA's NSSDC Master Catalog

Two Line Element Set (TLE):
1  9862U 77018A   18231.47691361 +.00000094 +00000-0 +00000-0 0  9993
2  9862 013.7412 335.9646 0003446 009.7910 002.7676 01.00042429114516
Source of the keplerian elements: AFSPC